Back to catalog

KUIPER-00537

AliveCommunicationsLEO
NORAD 69607·PAYLOAD·🇺🇸 United States

Launched Jun 17, 2026 from Guiana Space Centre

Loading…

Next Passes (next 24 hours)

TLE

FreshSource: CelesTrak SupGP

Epoch: Sep 14, 2026, 15:51 UTC

1 69607C 26140R   26257.66049769  .00006878  00000+0  90053-3 0  2575
2 69607  51.9011 344.9410 0000536 347.0544 226.8754 14.79918324    16

Track KUIPER-00537 in real time with AllMySat

Download on the App Store